Contact Us:
Email: info@sawbill.com
Phone: (218)663-7150
Fax: (218)663-7980
Mail: 4620 Sawbill Trail
Box 2129
Tofte, MN 55615


Powered by
Movable Type 3.15
 
Sawbill Weather History Archives: January 2017
Current Sawbill Weather History | « December 2016 | February 2017 »


Date

High
Temperature

Low
Temperature

Barometric
Pressure

Relative
Humidity 7AM

9 AM
Temperature

Moisture

Snow

1/31/17 24 2 30.01 60% 2 0"
1/30/17 21 11 29.80 83% 21 0.25" 2"
1/29/17 12 -4 29.86 55% 10 0"
1/28/17 20 7 29.92 55% 7 0"
1/27/17 27 16 29.84 59% 19 Trace Trace
1/26/17 28 24 29.90 75% 26 0"
1/25/17 32 24 29.90 84% 24 0"
1/24/17 36 31 29.94 88% 31 Trace Trace
1/23/17 35 32 29.88 98% 33 Trace Trace
1/22/17 35 25 28.40 98% 34 Trace Trace
1/20/17 34 25 29.88 95% 25 0"
1/19/17 35 20 29.92 98% 29 0"
1/18/17 34 9 29.92 69% 29 0"
1/16/17 33 8 30.03 67% 8 0"
1/15/17 30 10 30.12 69% 16 0"
1/14/17 14 3 30.19 60% 16 0"
1/13/17 6 -18 30.30 26% 3 0"
1/12/17 3 -19 30.46 26% -18 0"
1/11/17 24 -4 29.84 72% -2 .35" 4.20"
1/9/17 22 5 29.74 90% 22 .34" 3.5"
1/7/17 10 -9 30.10 70% 6 0"
1/6/17 -3 -9 30.28 70% -9 0"
1/5/17 -1 -16 30.16 70% -8 0"
1/4/17 -7 -14 29.95 70% -14 0"
1/3/17 26 -10 29.94 70% -10 Trace Trace
1/2/17 26 16 30.00 93% 25 .41" 4.75"
1/1/17 19 2 30.16 82% 16 Trace Trace
 


Home I Trip Planning I Rentals and Outfitting I Reservations I Campgrounds I Sawbill Store I Sawbill News I Contact

© 1997 - 2017, Sawbill Canoe Outfitters, Inc. I Privacy Policy